TimeCDT,TemperatureF,Dew PointF,Humidity,Sea Level PressureIn,VisibilityMPH,Wind Direction,Wind SpeedMPH,Gust SpeedMPH,PrecipitationIn,Events,Conditions,WindDirDegrees,DateUTC
12:20 AM,60.8,60.8,100,29.99,1.5,Calm,Calm,-,N/A,,Clear,0,2013-09-24 05:20:00
12:22 AM,60.8,60.8,100,29.99,1.0,Calm,Calm,-,N/A,,Clear,0,2013-09-24 05:22:00
12:33 AM,59.0,59.0,100,29.99,0.5,Calm,Calm,-,N/A,Fog,Fog,0,2013-09-24 05:33:00
12:41 AM,59.0,59.0,100,29.99,1.0,Calm,Calm,-,N/A,,Clear,0,2013-09-24 05:41:00
12:43 AM,60.8,60.8,100,29.99,1.8,Calm,Calm,-,N/A,,Clear,0,2013-09-24 05:43:00
12:45 AM,60.8,60.8,100,29.99,3.0,Calm,Calm,-,N/A,,Clear,0,2013-09-24 05:45:00
12:48 AM,59.0,59.0,100,29.99,1.5,Calm,Calm,-,N/A,,Clear,0,2013-09-24 05:48:00
12:56 AM,59.0,59.0,100,30.01,1.0,Calm,Calm,-,N/A,,Clear,0,2013-09-24 05:56:00
12:58 AM,57.2,57.2,100,29.99,2.0,Calm,Calm,-,N/A,,Clear,0,2013-09-24 05:58:00
1:05 AM,59.0,59.0,100,29.99,7.0,Calm,Calm,-,N/A,,Clear,0,2013-09-24 06:05:00
1:56 AM,59.0,59.0,100,30.01,7.0,Calm,Calm,-,N/A,,Clear,0,2013-09-24 06:56:00
2:17 AM,57.2,57.2,100,29.99,1.8,Calm,Calm,-,N/A,,Clear,0,2013-09-24 07:17:00
2:20 AM,57.2,57.2,100,29.99,1.0,Calm,Calm,-,N/A,,Clear,0,2013-09-24 07:20:00
2:28 AM,57.2,57.2,100,29.99,0.5,Calm,Calm,-,N/A,Fog,Fog,0,2013-09-24 07:28:00
2:38 AM,57.2,57.2,100,29.99,1.0,Calm,Calm,-,N/A,,Clear,0,2013-09-24 07:38:00
2:40 AM,57.2,57.2,100,29.99,1.5,Calm,Calm,-,N/A,,Clear,0,2013-09-24 07:40:00
2:44 AM,57.2,57.2,100,29.99,3.0,Calm,Calm,-,N/A,,Clear,0,2013-09-24 07:44:00
2:56 AM,57.9,57.9,100,30.01,6.0,Calm,Calm,-,N/A,,Clear,0,2013-09-24 07:56:00
3:03 AM,57.2,57.2,100,29.99,1.0,Calm,Calm,-,N/A,,Clear,0,2013-09-24 08:03:00
3:07 AM,57.2,57.2,100,29.99,0.5,Calm,Calm,-,N/A,Fog,Fog,0,2013-09-24 08:07:00
3:19 AM,55.4,55.4,100,29.99,1.0,Calm,Calm,-,N/A,,Clear,0,2013-09-24 08:19:00
3:25 AM,57.2,57.2,100,29.99,0.5,Calm,Calm,-,N/A,Fog,Fog,0,2013-09-24 08:25:00
3:35 AM,57.2,57.2,100,29.99,1.0,Calm,Calm,-,N/A,,Clear,0,2013-09-24 08:35:00
3:44 AM,57.2,57.2,100,29.99,1.5,Calm,Calm,-,N/A,,Clear,0,2013-09-24 08:44:00
3:47 AM,57.2,57.2,100,29.99,4.0,Calm,Calm,-,N/A,,Clear,0,2013-09-24 08:47:00
3:56 AM,56.8,56.8,100,30.01,7.0,Calm,Calm,-,N/A,,Clear,0,2013-09-24 08:56:00
4:05 AM,57.2,57.2,100,29.99,1.2,Calm,Calm,-,N/A,,Clear,0,2013-09-24 09:05:00
4:07 AM,57.2,57.2,100,29.99,0.8,Calm,Calm,-,N/A,,Clear,0,2013-09-24 09:07:00
4:14 AM,57.2,57.2,100,29.99,0.5,Calm,Calm,-,N/A,Fog,Fog,0,2013-09-24 09:14:00
4:19 AM,57.2,57.2,100,29.99,1.0,Calm,Calm,-,N/A,,Clear,0,2013-09-24 09:19:00
4:21 AM,57.2,57.2,100,29.99,2.0,Calm,Calm,-,N/A,,Clear,0,2013-09-24 09:21:00
4:28 AM,55.4,55.4,100,30.00,10.0,Calm,Calm,-,N/A,,Clear,0,2013-09-24 09:28:00
4:42 AM,55.4,55.4,100,30.00,1.8,Calm,Calm,-,N/A,,Clear,0,2013-09-24 09:42:00
4:56 AM,55.9,55.9,100,30.02,5.0,Calm,Calm,-,N/A,,Clear,0,2013-09-24 09:56:00
5:04 AM,55.4,55.4,100,30.00,1.8,Calm,Calm,-,N/A,,Clear,0,2013-09-24 10:04:00
5:14 AM,55.4,55.4,100,30.01,3.0,Calm,Calm,-,N/A,,Clear,0,2013-09-24 10:14:00
5:39 AM,55.4,55.4,100,30.01,1.5,Calm,Calm,-,N/A,,Clear,0,2013-09-24 10:39:00
5:44 AM,55.4,55.4,100,30.01,1.0,Calm,Calm,-,N/A,,Clear,0,2013-09-24 10:44:00
5:49 AM,55.4,55.4,100,30.02,1.5,Calm,Calm,-,N/A,,Clear,0,2013-09-24 10:49:00
5:56 AM,55.9,55.9,100,30.04,0.8,Calm,Calm,-,N/A,,Clear,0,2013-09-24 10:56:00
6:06 AM,55.4,55.4,100,30.02,1.2,Calm,Calm,-,N/A,,Clear,0,2013-09-24 11:06:00
6:10 AM,55.4,55.4,100,30.02,2.0,Calm,Calm,-,N/A,,Clear,0,2013-09-24 11:10:00
6:15 AM,55.4,55.4,100,30.02,1.0,Calm,Calm,-,N/A,,Clear,0,2013-09-24 11:15:00
6:25 AM,55.4,55.4,100,30.02,1.5,Calm,Calm,-,N/A,,Clear,0,2013-09-24 11:25:00
6:27 AM,55.4,55.4,100,30.02,3.0,Calm,Calm,-,N/A,,Clear,0,2013-09-24 11:27:00
6:56 AM,55.9,55.9,100,30.04,10.0,Calm,Calm,-,N/A,Fog,Patches of Fog,0,2013-09-24 11:56:00
7:56 AM,61.0,61.0,100,30.04,10.0,ESE,4.6,-,N/A,,Clear,110,2013-09-24 12:56:00
8:56 AM,68.0,61.9,81,30.04,10.0,SSE,3.5,-,N/A,,Mostly Cloudy,160,2013-09-24 13:56:00
9:56 AM,72.9,63.0,71,30.03,10.0,South,6.9,-,0.00,,Partly Cloudy,180,2013-09-24 14:56:00
10:56 AM,75.9,63.9,66,30.01,10.0,Variable,4.6,-,N/A,,Clear,0,2013-09-24 15:56:00
11:56 AM,77.0,63.9,64,29.99,10.0,SE,8.1,-,N/A,,Scattered Clouds,140,2013-09-24 16:56:00
12:56 PM,79.0,63.0,58,29.96,10.0,SE,8.1,-,N/A,,Scattered Clouds,140,2013-09-24 17:56:00
1:56 PM,81.0,63.9,56,29.93,10.0,South,9.2,-,N/A,,Scattered Clouds,180,2013-09-24 18:56:00
2:56 PM,81.0,63.9,56,29.92,10.0,South,9.2,-,N/A,,Scattered Clouds,180,2013-09-24 19:56:00
3:56 PM,81.0,63.0,54,29.90,10.0,South,10.4,-,N/A,,Clear,180,2013-09-24 20:56:00
4:56 PM,77.9,63.9,62,29.91,10.0,South,8.1,-,N/A,,Clear,170,2013-09-24 21:56:00
5:56 PM,74.8,64.9,71,29.90,10.0,SSE,8.1,-,N/A,,Clear,150,2013-09-24 22:56:00
6:56 PM,72.9,64.9,76,29.90,10.0,SSE,10.4,-,N/A,,Mostly Cloudy,160,2013-09-24 23:56:00
7:56 PM,70.9,65.8,84,29.91,10.0,SE,5.8,-,0.00,,Mostly Cloudy,140,2013-09-25 00:56:00
8:56 PM,70.0,65.8,87,29.92,10.0,SSE,4.6,-,0.00,Rain,Light Rain,150,2013-09-25 01:56:00
9:56 PM,68.9,65.8,90,29.91,10.0,East,5.8,-,0.00,,Scattered Clouds,100,2013-09-25 02:56:00
10:27 PM,69.8,66.2,88,29.91,10.0,South,3.5,-,N/A,,Overcast,170,2013-09-25 03:27:00
10:56 PM,68.0,66.9,96,29.93,5.0,SSE,4.6,-,0.02,Rain,Rain,160,2013-09-25 03:56:00
11:11 PM,68.0,66.2,94,29.90,4.0,SE,5.8,-,0.02,Rain,Light Rain,130,2013-09-25 04:11:00
11:56 PM,65.8,64.9,97,29.91,10.0,SSE,3.5,-,0.05,Rain,Light Rain,150,2013-09-25 04:56:00